Content
SEND FEEDBACK

Daily
Averages
Monthly
Summary
United States of America

STATEN ISLAND, NEW YORK


Home > North America > United States > New York
Elevation: 46 meters     Latitude: 40 35N     Longitude: 074 09W

WEATHER
 
SELECT A DAY
Number of Records: 192,417;   Date Range: 1/1/95 - 10/22/14
 
SHARE

PRINT THIS DATA

[ ← Previous Day ]
WEATHER ALMANAC - 21 FEBRUARY, 2013
[ Next Day → ]
[ °F ]   °C
Weather ElementAverageHighLow
Temperature-1.4 °C2.2 °C (2:51 pm)-4.4 °C (1:51 am)
Dewpoint-11.6 °C-10.6 °C (2:51 pm)-12.8 °C (7:51 am)
Humidity47.4 %58 % (10:51 pm)37 % (11:51 am)
Barometer1019 hPa1025.7 hPa (11:51 pm)1015.6 hPa (3:51 am)
Wind Speed27.2 km/h44.4 km/h (10:51 am)
Wind Gust62.9 km/h (10:51 am)
Weather ElementAverage
Visibility16.1 km
Wind DirectionWNW (305.7 °)

Weather ElementTotal
Precipitation---
Heating Degree Days19.4 (Base 18.3)
Averaged from 23 records on 21 February, 2013
WEATHER CONDITIONS BREAKOUT
WIND DIRECTION BREAKOUT
WEATHER BY HOUR - 21 FEBRUARY, 2013
[ °F ]   °C
Local TimeTemperatureDewpointHumidityBarometerVisibilityWind DirectionWind SpeedGust SpeedPrecipitationEventsConditions
1:51 AM-4.4 °C-12.2 °C55 %1015.9 hPa16.1 kmWest (280°)16.7 km/hScattered Clouds
2:51 AM-3.9 °C-12.2 °C53 %1015.9 hPa16.1 kmWNW (290°)24.1 km/h35.2 km/hMostly Cloudy
3:51 AM-3.9 °C-12.2 °C53 %1015.6 hPa16.1 kmWest (280°)16.7 km/hMostly Cloudy
4:51 AM-3.3 °C-11.7 °C53 %1016.3 hPa16.1 kmWNW (290°)22.2 km/hMostly Cloudy
5:51 AM-3.3 °C-12.2 °C51 %1016.6 hPa16.1 kmNW (310°)27.8 km/h51.8 km/hOvercast
6:51 AM-3 °C-12 °C51 %1016.9 hPa16.1 kmWNW (300°)27.8 km/h37 km/hOvercast
7:51 AM-2.8 °C-12.8 °C47 %1017.3 hPa16.1 kmNW (310°)22.2 km/h33.3 km/hMostly Cloudy
8:51 AM-1.7 °C-12.2 °C45 %1016.9 hPa16.1 kmWNW (290°)29.6 km/h44.4 km/hMostly Cloudy
9:51 AM-1.1 °C-12.2 °C43 %1016.6 hPa16.1 kmWest (280°)31.5 km/h50.1 km/hScattered Clouds
10:51 AM0.6 °C-12.2 °C38 %1016.9 hPa16.1 kmWNW (290°)44.4 km/h62.9 km/hScattered Clouds
11:51 AM1.7 °C-11.7 °C37 %1016.6 hPa16.1 kmWNW (290°)40.7 km/h57.5 km/hScattered Clouds
12:51 PM1.7 °C-11.7 °C37 %1015.9 hPa16.1 kmWNW (300°)31.5 km/h55.5 km/hScattered Clouds
1:51 PM1.7 °C-11.1 °C39 %1016.6 hPa16.1 kmWNW (290°)37 km/h53.8 km/hPartly Cloudy
2:51 PM2.2 °C-10.6 °C39 %1016.9 hPa16.1 kmNW (310°)27.8 km/h44.4 km/hPartly Cloudy
3:51 PM2.2 °C-10.6 °C39 %1017.3 hPa16.1 kmWNW (300°)31.5 km/h53.8 km/hPartly Cloudy
4:51 PM1.1 °C-11.1 °C40 %1019 hPa16.1 kmNW (320°)31.5 km/h38.9 km/hPartly Cloudy
5:51 PM-0.6 °C-11.1 °C46 %1020.3 hPa16.1 kmNW (320°)25.9 km/h38.9 km/hPartly Cloudy
6:51 PM-1.7 °C-11.1 °C49 %1021 hPa16.1 kmNW (320°)27.8 km/h35.2 km/hPartly Cloudy
7:51 PM-2.2 °C-11.1 °C51 %1023.7 hPa16.1 kmNW (320°)22.2 km/h35.2 km/hClear
8:51 PM-2.8 °C-11.1 °C53 %1025.1 hPa16.1 kmNW (320°)25.9 km/h37 km/hClear
9:51 PM-3 °C-11 °C55 %1025.1 hPa16.1 kmNNW (330°)22.2 km/hClear
10:51 PM-3.9 °C-11.1 °C58 %1025.4 hPa16.1 kmNNW (330°)25.9 km/hClear
11:51 PM-3.3 °C-10.6 °C58 %1025.7 hPa16.1 kmNorth (360°)13 km/h29.6 km/hClear
Hourly data recorded from KEWR, located 0 kilometers away from Staten Island, New York







STORIES FROM OUR PARTNERS